| time (UTC) | temp F | wind direction | speed MPH | gust MPH | rain 1hr in | rain 24hr in | rain mn in | humidity % | barometer mb |
| 20260502203106 | 66 | 340 | 3.0 | 8.0 | 0.00 | 0.00 | 0.00 | 31 | 1012.5 |
| 20260502201540 | 65 | 300 | 3.0 | 13.0 | 0.00 | 0.00 | 0.00 | 33 | 1013.0 |
| 20260502200039 | 64 | 257 | 2.0 | 9.0 | 0.00 | 0.00 | 0.00 | 32 | 1013.2 |
| 20260502194535 | 64 | 234 | 2.0 | 10.0 | 0.00 | 0.00 | 0.00 | 32 | 1013.5 |
| 20260502193033 | 64 | 285 | 2.0 | 11.0 | 0.00 | 0.00 | 0.00 | 33 | 1014.3 |
| 20260502191530 | 63 | 229 | 5.0 | 13.0 | 0.00 | 0.00 | 0.00 | 34 | 1014.7 |
| 20260502190028 | 62 | 191 | 3.0 | 9.0 | 0.00 | 0.00 | 0.00 | 33 | 1014.9 |
| 20260502184526 | 62 | 102 | 4.0 | 12.0 | 0.00 | 0.00 | 0.00 | 33 | 1015.2 |
| 20260502183021 | 60 | 148 | 4.0 | 9.0 | 0.00 | 0.00 | 0.00 | 34 | 1015.7 |
| 20260502181519 | 61 | 264 | 3.0 | 12.0 | 0.00 | 0.00 | 0.00 | 35 | 1015.8 |
| 20260502163104 | 57 | 300 | 3.0 | 10.0 | 0.00 | 0.00 | 0.00 | 36 | 1017.6 |
| 20260502161600 | 56 | 295 | 3.0 | 12.0 | 0.00 | 0.00 | 0.00 | 35 | 1017.8 |
| 20260502151601 | 54 | 261 | 2.0 | 10.0 | 0.00 | 0.00 | 0.00 | 42 | 1018.5 |
| 20260502123004 | 0 | 0.0 | 0.0 | 0.00 | 0.00 | 0.00 | 1019.3 | ||
| 20260502121559 | 0 | 0.0 | 0.0 | 0.00 | 0.00 | 0.00 | 1018.8 | ||
| 20260502114554 | 0 | 0.0 | 0.0 | 0.00 | 0.00 | 0.00 | 1018.8 | ||
| 20260502113046 | 0 | 0.0 | 0.0 | 0.00 | 0.00 | 0.00 | 1018.8 | ||
| 20260502111543 | 0 | 0.0 | 0.0 | 0.00 | 0.00 | 0.00 | 1019.1 | ||
| 20260502110042 | 28 | 320 | 0.0 | 0.0 | 0.00 | 0.00 | 0.00 | 86 | 1018.8 |
| 20260502104539 | 30 | 318 | 0.0 | 0.0 | 0.00 | 0.00 | 0.00 | 87 | 1018.6 |
| 20260502103034 | 30 | 318 | 0.0 | 0.0 | 0.00 | 0.00 | 0.00 | 86 | 1019.0 |
| 20260502101537 | 31 | 318 | 0.0 | 0.0 | 0.00 | 0.00 | 0.00 | 85 | 1018.6 |
| 20260502091526 | 33 | 318 | 0.0 | 0.0 | 0.00 | 0.00 | 0.00 | 78 | 1018.6 |
| 20260502071518 | 32 | 318 | 0.0 | 0.0 | 0.00 | 0.00 | 0.00 | 81 | 1019.0 |
| 20260502070017 | 32 | 318 | 0.0 | 0.0 | 0.00 | 0.00 | 0.00 | 80 | 1018.5 |
| 20260502064531 | 32 | 318 | 0.0 | 0.0 | 0.00 | 0.00 | 0.00 | 78 | 1018.9 |
| 20260502063011 | 33 | 318 | 0.0 | 0.0 | 0.00 | 0.00 | 0.00 | 75 | 1018.7 |
| 20260502061508 | 33 | 318 | 0.0 | 0.0 | 0.00 | 0.00 | 0.00 | 73 | 1018.8 |
| 20260502060006 | 34 | 318 | 0.0 | 0.0 | 0.00 | 0.00 | 0.00 | 72 | 1019.2 |
| 20260502054504 | 35 | 318 | 0.0 | 0.0 | 0.00 | 0.00 | 0.00 | 72 | 1018.7 |
| 20260502053003 | 35 | 318 | 0.0 | 0.0 | 0.00 | 0.00 | 0.00 | 72 | 1019.0 |
| 20260502051601 | 35 | 318 | 0.0 | 0.0 | 0.00 | 0.00 | 0.00 | 69 | 1018.8 |
| 20260502050056 | 35 | 318 | 0.0 | 0.0 | 0.00 | 0.00 | 0.00 | 68 | 1018.9 |
| 20260502044554 | 35 | 318 | 0.0 | 0.0 | 0.00 | 0.00 | 0.00 | 67 | 1019.2 |
| 20260502043054 | 36 | 318 | 0.0 | 0.0 | 0.00 | 0.00 | 0.00 | 65 | 1018.8 |
| 20260502041553 | 37 | 318 | 0.0 | 0.0 | 0.00 | 0.00 | 0.00 | 63 | 1019.0 |
| 20260502040104 | 38 | 318 | 0.0 | 0.0 | 0.00 | 0.00 | 0.00 | 62 | 1018.8 |
| 20260502034554 | 38 | 318 | 0.0 | 0.0 | 0.00 | 0.00 | 0.00 | 60 | 1018.8 |
| 20260502033050 | 38 | 318 | 0.0 | 0.0 | 0.00 | 0.00 | 0.00 | 59 | 1019.0 |
| 20260502031602 | 39 | 318 | 0.0 | 0.0 | 0.00 | 0.00 | 0.00 | 56 | 1018.8 |
| 20260502030051 | 40 | 318 | 0.0 | 0.0 | 0.00 | 0.00 | 0.00 | 54 | 1019.2 |
| 20260502024549 | 41 | 318 | 0.0 | 0.0 | 0.00 | 0.00 | 0.00 | 53 | 1018.8 |
| 20260502023053 | 42 | 318 | 0.0 | 0.0 | 0.00 | 0.00 | 0.00 | 52 | 1018.8 |
| 20260502021548 | 43 | 318 | 0.0 | 0.0 | 0.00 | 0.00 | 0.00 | 48 | 1019.1 |
| 20260502020105 | 44 | 318 | 0.0 | 0.0 | 0.00 | 0.00 | 0.00 | 45 | 1018.5 |
| 20260502014552 | 47 | 318 | 0.0 | 0.0 | 0.00 | 0.00 | 0.00 | 42 | 1018.7 |
| 20260502013046 | 49 | 318 | 0.0 | 0.0 | 0.00 | 0.00 | 0.00 | 38 | 1018.1 |
| 20260502011551 | 50 | 318 | 0.0 | 1.0 | 0.00 | 0.00 | 0.00 | 35 | 1018.2 |
| 20260502010045 | 51 | 315 | 0.0 | 3.0 | 0.00 | 0.00 | 0.00 | 34 | 1018.6 |
| 20260502004554 | 52 | 328 | 1.0 | 4.0 | 0.00 | 0.00 | 0.00 | 32 | 1018.5 |
| 20260502003046 | 54 | 346 | 1.0 | 4.0 | 0.00 | 0.00 | 0.00 | 30 | 1018.5 |
| 20260502001621 | 53 | 315 | 0.0 | 3.0 | 0.00 | 0.00 | 0.00 | 29 | 1018.1 |
| 20260502000042 | 53 | 312 | 0.0 | 2.0 | 0.00 | 0.00 | 0.00 | 31 | 1018.5 |
| 20260501234541 | 53 | 324 | 3.0 | 7.0 | 0.00 | 0.00 | 0.00 | 30 | 1018.6 |
| 20260501233041 | 54 | 236 | 0.0 | 6.0 | 0.00 | 0.00 | 0.00 | 29 | 1018.6 |
| 20260501231540 | 55 | 338 | 3.0 | 7.0 | 0.00 | 0.00 | 0.00 | 30 | 1018.6 |
| 20260501230040 | 55 | 336 | 0.0 | 5.0 | 0.00 | 0.00 | 0.00 | 29 | 1018.5 |
| 20260501224551 | 53 | 281 | 0.0 | 4.0 | 0.00 | 0.00 | 0.00 | 29 | 1018.7 |
| 20260501223038 | 54 | 322 | 3.0 | 8.0 | 0.00 | 0.00 | 0.00 | 29 | 1018.7 |
| 20260501221534 | 54 | 326 | 3.0 | 10.0 | 0.00 | 0.00 | 0.00 | 29 | 1018.8 |
| 20260501220037 | 53 | 297 | 3.0 | 5.0 | 0.00 | 0.00 | 0.00 | 31 | 1018.8 |
| 20260501214532 | 53 | 5 | 2.0 | 6.0 | 0.00 | 0.00 | 0.00 | 32 | 1018.8 |
| 20260501213033 | 52 | 326 | 1.0 | 7.0 | 0.00 | 0.00 | 0.00 | 30 | 1018.4 |
| 20260501211531 | 53 | 316 | 4.0 | 12.0 | 0.00 | 0.00 | 0.00 | 31 | 1018.5 |
| 20260501210034 | 53 | 338 | 6.0 | 12.0 | 0.00 | 0.00 | 0.00 | 31 | 1018.6 |
| 20260501204528 | 54 | 27 | 4.0 | 12.0 | 0.00 | 0.00 | 0.00 | 29 | 1018.6 |